Weather History for Middleton, WI

Change the Weather History Date:

Sunday, February 3, 2013

  Actual Average (KMSN) Record (KMSN)
Temperature  
Mean Temperature 15 °F 20 °F  
Max Temperature 21 °F 28 °F 52 °F (1992)
Min Temperature 9 °F 12 °F -29 °F (1996)
Degree Days  
Heating Degree Days 50 45  
Month to date heating degree days 135  
Since 1 July heating degree days 4448  
Cooling Degree Days 0 0  
Month to date cooling degree days 0  
Year to date cooling degree days 0  
Moisture  
Dew Point 8 °F    
Average Humidity 72    
Maximum Humidity 86    
Minimum Humidity 54    
Precipitation  
Precipitation 0.00 in 0.05 in 1.20 in (1875)
Month to date precipitation 0.13  
Year to date precipitation 1.36  
Snow  
Snow 0.00 in 0.40 in 3.90 in (1936)
Month to date snowfall 1.3  
Since 1 July snowfall 31.8  
Snow Depth -    
Sea Level Pressure  
Sea Level Pressure 29.97 in    
Wind  
Wind Speed 6 mph (West)    
Max Wind Speed 18 mph    
Max Gust Speed 23 mph    
Visibility 7 miles    
Events      
T = Trace of Precipitation, MM = Missing Value Source: NWS Daily Summary

Daily Weather History Graph

Daily Weather History Graph

Search for Another Location

Airport:

Trip Planner

Search our weather history database for the weather conditions in past years. The results will help you decide how hot, cold, wet, or windy it might be!

Date:

Astronomy

Feb. 03, 2013 Rise Set
Actual Time 7:10 AM CST 5:13 PM CST
Civil Twilight 6:40 AM CST 5:43 PM CST
Nautical Twilight 6:07 AM CST 6:17 PM CST
Astronomical Twilight 5:33 AM CST 6:50 PM CST
Moon 12:38 AM CST (2/3) 10:49 AM CST (2/3)
Length of Visible Light 11h 02m
Length of Day
10h 02m
Waning Gibbous, 48% of the Moon is Illuminated
Feb 3
Waning Gibbous
Feb 10
New
Feb 17
First Quarter
Feb 25
Full
Mar 4
Last Quarter

Hourly Weather History & Observations

Time (CST) Temp. Windchill Dew Point Humidity Pressure Visibility Wind Dir Wind Speed Gust Speed Precip Events Conditions
12:15 AM 9.5 °F 3.0 °F 4.6 °F 81% 29.97 in 7.0 mi SW 3.5 mph - N/A   Overcast
12:35 AM 9.3 °F 2.8 °F 4.3 °F 80% 29.97 in 7.0 mi SW 3.5 mph - N/A   Overcast
12:55 AM 9.5 °F - 4.6 °F 81% 29.96 in 2.0 mi Calm Calm - N/A   Overcast
1:15 AM 9.7 °F 3.2 °F 4.8 °F 81% 29.96 in 4.0 mi SW 3.5 mph - N/A   Overcast
1:35 AM 10.0 °F 3.6 °F 5.0 °F 80% 29.95 in 5.0 mi WSW 3.5 mph - N/A   Overcast
2:15 AM 9.5 °F - 4.8 °F 81% 29.94 in 4.0 mi Calm Calm - N/A   Overcast
2:35 AM 9.5 °F - 5.0 °F 82% 29.94 in 3.0 mi Calm Calm - N/A   Overcast
2:55 AM 10.4 °F - 5.7 °F 81% 29.93 in 5.0 mi Calm Calm - N/A   Overcast
3:15 AM 10.0 °F - 5.5 °F 82% 29.92 in 7.0 mi Calm Calm - N/A   Overcast
3:35 AM 11.1 °F 4.9 °F 5.9 °F 80% 29.91 in 7.0 mi SW 3.5 mph - N/A   Overcast
3:55 AM 10.9 °F 2.9 °F 5.9 °F 80% 29.90 in 10.0 mi WSW 4.6 mph - N/A   Overcast
4:15 AM 11.3 °F 5.1 °F 6.4 °F 81% 29.91 in 10.0 mi West 3.5 mph - N/A   Overcast
4:35 AM 11.7 °F 3.7 °F 6.6 °F 80% 29.92 in 7.0 mi WSW 4.6 mph - N/A   Overcast
4:55 AM 11.8 °F 5.7 °F 6.8 °F 80% 29.92 in 7.0 mi West 3.5 mph - N/A   Overcast
5:15 AM 11.8 °F 3.9 °F 6.8 °F 80% 29.92 in 3.0 mi West 4.6 mph - N/A   Overcast
5:35 AM 11.8 °F 5.7 °F 7.3 °F 82% 29.93 in 2.0 mi West 3.5 mph - N/A   Overcast
5:55 AM 12.0 °F 2.7 °F 7.5 °F 82% 29.92 in 1.5 mi West 5.8 mph - N/A   Overcast
6:15 AM 12.2 °F 2.9 °F 7.7 °F 82% 29.92 in 2.0 mi West 5.8 mph - N/A   Overcast
6:35 AM 12.6 °F 2.2 °F 7.7 °F 81% 29.93 in 4.0 mi West 6.9 mph - N/A   Overcast
6:55 AM 12.7 °F 0.4 °F 8.4 °F 83% 29.94 in 5.0 mi West 9.2 mph - N/A   Overcast
7:15 AM 13.1 °F 0.1 °F 8.4 °F 82% 29.95 in 5.0 mi West 10.4 mph - N/A   Overcast
7:35 AM 13.1 °F 0.9 °F 8.6 °F 82% 29.95 in 5.0 mi WNW 9.2 mph - N/A   Overcast
7:55 AM 13.5 °F 3.3 °F 8.6 °F 81% 29.95 in 3.0 mi WNW 6.9 mph - N/A   Overcast
8:15 AM 13.8 °F 1.8 °F 8.6 °F 80% 29.96 in 4.0 mi West 9.2 mph - N/A   Overcast
8:35 AM 14.2 °F 2.2 °F 8.6 °F 78% 29.97 in 5.0 mi WNW 9.2 mph - N/A   Overcast
8:55 AM 14.5 °F 1.9 °F 8.6 °F 77% 29.97 in 10.0 mi WNW 10.4 mph - N/A   Overcast
9:15 AM 15.1 °F 3.3 °F 8.1 °F 74% 29.97 in 10.0 mi WNW 9.2 mph - N/A   Overcast
9:35 AM 15.8 °F -0.6 °F 8.1 °F 72% 29.97 in 5.0 mi NW 18.4 mph 23.0 mph N/A   Overcast
9:55 AM 16.2 °F 0.8 °F 7.9 °F 70% 29.97 in 5.0 mi NW 16.1 mph 21.9 mph N/A   Mostly Cloudy
10:15 AM 17.1 °F 2.0 °F 7.7 °F 67% 29.98 in 7.0 mi NW 16.1 mph - N/A   Mostly Cloudy
10:35 AM 17.4 °F 4.1 °F 7.3 °F 65% 29.99 in 5.0 mi NW 12.7 mph - N/A   Scattered Clouds
10:55 AM 17.6 °F 5.0 °F 7.0 °F 63% 30.00 in 5.0 mi WNW 11.5 mph 21.9 mph N/A   Scattered Clouds
11:15 AM 18.3 °F 4.1 °F 7.2 °F 62% 29.99 in 7.0 mi WNW 15.0 mph - N/A   Scattered Clouds
11:35 AM 18.9 °F 6.5 °F 7.7 °F 62% 29.99 in 10.0 mi WNW 11.5 mph 18.4 mph N/A   Scattered Clouds
11:55 AM 19.0 °F 5.6 °F 7.2 °F 60% 29.99 in 10.0 mi West 13.8 mph - N/A   Scattered Clouds
12:15 PM 19.2 °F 7.7 °F 5.5 °F 55% 29.98 in 10.0 mi WNW 10.4 mph - N/A   Clear
12:35 PM 20.1 °F 8.8 °F 6.6 °F 56% 29.97 in 10.0 mi WNW 10.4 mph - N/A   Clear
12:55 PM 20.3 °F 8.3 °F 6.6 °F 56% 29.98 in 10.0 mi West 11.5 mph - N/A   Clear
1:15 PM 20.8 °F 8.4 °F 7.9 °F 57% 29.98 in 10.0 mi West 12.7 mph - N/A   Clear
1:35 PM 20.7 °F 8.2 °F 7.0 °F 56% 29.98 in 10.0 mi West 12.7 mph - N/A   Scattered Clouds
1:55 PM 21.2 °F 8.3 °F 7.5 °F 56% 29.98 in 10.0 mi WNW 13.8 mph - N/A   Clear
2:15 PM 19.8 °F 7.1 °F 6.1 °F 55% 29.98 in 10.0 mi WNW 12.7 mph - N/A   Scattered Clouds
2:35 PM 20.3 °F 6.6 °F 6.8 °F 56% 29.98 in 10.0 mi West 15.0 mph 19.6 mph N/A   Mostly Cloudy
2:55 PM 20.7 °F 8.2 °F 7.2 °F 56% 29.98 in 10.0 mi WNW 12.7 mph - N/A   Overcast
3:15 PM 20.8 °F 9.7 °F 7.0 °F 55% 29.98 in 10.0 mi West 10.4 mph - N/A   Scattered Clouds
3:35 PM 20.8 °F 9.7 °F 6.6 °F 54% 29.97 in 10.0 mi West 10.4 mph - N/A   Clear
3:55 PM 20.3 °F 9.8 °F 7.3 °F 57% 29.97 in 10.0 mi West 9.2 mph - N/A   Scattered Clouds
4:15 PM 20.3 °F 11.5 °F 7.3 °F 57% 29.97 in 10.0 mi WNW 6.9 mph - N/A   Scattered Clouds
4:55 PM 17.4 °F 8.0 °F 5.4 °F 59% 29.97 in 10.0 mi WNW 6.9 mph - N/A   Clear
5:15 PM 16.9 °F 9.8 °F 5.5 °F 61% 29.97 in 10.0 mi West 4.6 mph - N/A   Mostly Cloudy
5:35 PM 17.6 °F 12.3 °F 7.5 °F 65% 29.97 in 10.0 mi West 3.5 mph - N/A   Overcast
5:55 PM 18.7 °F 7.8 °F 6.3 °F 58% 29.97 in 10.0 mi West 9.2 mph - N/A   Overcast
6:15 PM 18.7 °F 10.6 °F 6.6 °F 59% 29.98 in 10.0 mi West 5.8 mph - N/A   Overcast
6:35 PM 16.7 °F 11.2 °F 7.3 °F 67% 29.99 in 10.0 mi WSW 3.5 mph - N/A   Mostly Cloudy
6:55 PM 16.5 °F 6.9 °F 6.8 °F 66% 29.99 in 10.0 mi WNW 6.9 mph - N/A   Overcast
7:15 PM 17.4 °F 10.4 °F 7.7 °F 66% 29.99 in 10.0 mi WSW 4.6 mph - N/A   Overcast
7:35 PM 17.2 °F 8.9 °F 8.1 °F 67% 29.99 in 10.0 mi WSW 5.8 mph - N/A   Overcast
7:55 PM 17.1 °F 8.7 °F 8.4 °F 69% 29.99 in 10.0 mi WSW 5.8 mph - N/A   Overcast
8:15 PM 16.9 °F 9.8 °F 8.4 °F 69% 29.99 in 10.0 mi West 4.6 mph - N/A   Overcast
8:35 PM 17.4 °F 10.4 °F 8.6 °F 68% 30.00 in 10.0 mi West 4.6 mph - N/A   Overcast
8:55 PM 17.4 °F 8.0 °F 9.3 °F 71% 30.00 in 10.0 mi West 6.9 mph - N/A   Overcast
9:15 PM 17.2 °F 10.2 °F 10.9 °F 76% 30.01 in 3.0 mi West 4.6 mph - N/A   Overcast
9:35 PM 16.7 °F 9.6 °F 12.0 °F 82% 30.00 in 2.5 mi WSW 4.6 mph - N/A   Overcast
9:55 PM 16.9 °F 11.5 °F 12.2 °F 82% 30.00 in 4.0 mi West 3.5 mph - N/A   Overcast
10:15 PM 16.7 °F 11.2 °F 12.2 °F 82% 30.00 in 2.5 mi West 3.5 mph - N/A   Overcast
10:35 PM 16.9 °F - 12.9 °F 84% 30.00 in 1.8 mi Calm Calm - N/A   Overcast
10:55 PM 16.9 °F - 13.1 °F 85% 30.00 in 1.5 mi Calm Calm - N/A   Overcast
11:15 PM 17.1 °F - 13.3 °F 85% 29.99 in 1.2 mi Calm Calm - N/A   Overcast
11:35 PM 17.2 °F - 13.8 °F 86% 29.98 in 2.0 mi Calm Calm - N/A   Overcast
11:55 PM 17.4 °F - 14.0 °F 86% 29.97 in 2.0 mi Calm Calm - N/A   Overcast